{"data":{"norad_id":68651,"epoch":"2026-05-24T17:17:59.279136Z","epoch_age_seconds":96489,"freshness":"FRESH","line1":"1 68651U 26075R   26144.72082499  .00000043  00000+0  38746-4 0  9992","line2":"2 68651  88.9892 323.4090 0009131  66.0874 294.1240 13.64256187  6638","mean_motion":13.64256187,"eccentricity":0.0009131,"inclination_deg":88.9892,"raan_deg":323.409,"arg_perigee_deg":66.0874,"mean_anomaly_deg":294.124,"bstar":3.8746e-5,"rev_number":663,"period_min":105.55202268619,"perigee_km":1013.5088583311,"apogee_km":1027.0198188556,"semimajor_km":7398.4013385933,"source":"CELESTRAK","updated_at":"2026-05-25T13:38:07.994145Z"}}